Torna al catalogo

ONEWEB-0546

AttivoComunicazioniPO
NORAD 56048·PAYLOAD·🇬🇧 United Kingdom

Lanciato Mar 26, 2023 da Satish Dhawan Space Centre

Loading…

Prossimi Passaggi (prossime 24 ore)

TLE

AggiornatoSource: CelesTrak SupGP

Epoca: Sep 14, 2026, 15:09 UTC

1 56048C 23043C   26257.63142778  .00000911  00000+0  23860-2 0  2573
2 56048  87.9156 211.0137 0001728  98.7040 296.5125 13.16595580    16

Traccia ONEWEB-0546 in tempo reale con AllMySat

Download on the App Store